This demonstration page uses our WeatherBlox Daily Observations layout. Learn more.

Left ArrowRight Arrow

44.8408, -93.29828

Hourly Observations for September 17, 2020

Temp ( °F °C ) Dew Point ( °F °C ) Humidity (%) Winds ( mph kmh ) Pressure ( in mb ) Visibility ( mi km ) Precip ( " mm )
12:53 am 00:53 Clear 52 11.1 42 5.6 69 69 N 8 13 30.24 1024 10 16 0.00 0.00
1:53 am 01:53 Clear 50 10 41 5 71 71 N 9 15 30.24 1024 10 16 0.00 0.00
2:53 am 02:53 Clear 49 9.4 40 4.4 71 71 N 10 17 30.26 1025 10 16 0.00 0.00
3:53 am 03:53 Mostly Clear 48 8.9 39 3.9 71 71 N 7 11 30.27 1025 10 16 0.00 0.00
4:53 am 04:53 Partly Cloudy 46 7.8 39 3.9 77 77 N 6 9 30.27 1025 10 16 0.00 0.00
5:53 am 05:53 Partly Cloudy 44 6.7 38 3.3 79 79 N 3 6 30.27 1025 10 16 0.00 0.00
6:53 am 06:53 Mostly Cloudy 44 6.7 38 3.3 79 79 NNE 5 7 30.29 1026 10 16 0.00 0.00
7:53 am 07:53 Mostly Cloudy 45 7.2 38 3.3 77 77 NNE 3 6 30.30 1026 10 16 0.00 0.00
8:53 am 08:53 Partly Cloudy 48 8.9 37 2.8 66 66 NNE 7 11 30.31 1027 10 16 0.00 0.00
9:53 am 09:53 Partly Cloudy 51 10.6 34 1.1 52 52 ENE 7 11 30.32 1027 10 16 0.00 0.00
10:53 am 10:53 Partly Cloudy 54 12.2 34 1.1 47 47 VRB 7 11 30.33 1027 10 16 0.00 0.00
11:53 am 11:53 Mostly Cloudy 56 13.3 33 0.6 42 42 N 7 11 30.32 1027 10 16 0.00 0.00
12:53 pm 12:53 Cloudy 58 14.4 30 -1.1 35 35 ENE 8 13 30.31 1026 10 16 0.00 0.00
1:53 pm 13:53 Mostly Cloudy 57 13.9 31 -0.6 37 37 N 9 15 30.30 1026 10 16 0.00 0.00
2:53 pm 14:53 Mostly Cloudy 57 13.9 33 0.6 41 41 NNE 8 13 30.30 1026 10 16 0.00 0.00
3:53 pm 15:53 Mostly Cloudy 58 14.4 31 -0.6 36 36 NNE 8 13 30.29 1026 10 16 0.00 0.00
4:53 pm 16:53 Mostly Cloudy 56 13.3 32 0 40 40 NE 7 11 30.30 1026 10 16 0.00 0.00
5:53 pm 17:53 Mostly Cloudy 56 13.3 34 1.1 44 44 NNE 9 15 30.29 1026 10 16 0.00 0.00
6:53 pm 18:53 Partly Cloudy 55 12.8 34 1.1 45 45 Calm 30.29 1026 10 16 0.00 0.00
7:53 pm 19:53 Mostly Clear 52 11.1 37 2.8 57 57 NW 3 6 30.31 1026 10 16 0.00 0.00
8:53 pm 20:53 Mostly Clear 52 11.1 38 3.3 59 59 NNW 5 7 30.32 1027 10 16 0.00 0.00
9:53 pm 21:53 Mostly Clear 51 10.6 39 3.9 64 64 N 5 7 30.34 1027 10 16 0.00 0.00
10:53 pm 22:53 Mostly Clear 49 9.4 38 3.3 66 66 VRB 6 9 30.35 1028 10 16 0.00 0.00
11:53 pm 23:53 Mostly Cloudy 49 9.4 39 3.9 69 69 N 7 11 30.35 1028 10 16 0.00 0.00

Powered by AerisWeather